Terug naar catalogus

FENGYUN 1C DEB *

LostSSO
NORAD 47002·DEBRIS·🇨🇳 China

Gelanceerd May 10, 1999 vanaf Taiyuan Satellite Launch Center

Loading…

Volgende Passages (komende 24 uur)

TLE

VerouderdSource: Space-Track

Epoch: Mar 23, 2023, 01:06 UTC

1 47002U 99025FAC 23082.04620247  .00004895  00000-0  45185-2 0  9999
2 47002  99.1609 180.8752 0227915 210.2710 148.5109 13.71968831623342

Volg FENGYUN 1C DEB * in realtime met AllMySat

Download on the App Store